SCP
0 0 0 -0 -0 0 0 0 0 0 0 0 0 0 0 0 0 0 0 0 0 0 0 0 0 0 0 0 0 0 0 0 0 0 0 0 0 0
0 0 0 -0 -0 0 0 0 0 0 0 0 0 0 0 0 0 0 0 0 0 0 0 0 0 0 0 0 0 0 0 0 0 0 0 0 0 0
0 0 0 -0 0 0 0 0 0 0 0 0 0 0 0 0 0 0 0 0 0 0 0 0 0 0 0 0 0 0 0 0 0 0 0 0 0 0
0 0 0 0 0 0 0 0 0 0 0 0 0 0 0 0 0 0 0 0 0 0 0 0 0 0 0 0 0 0 0 0 0 0 0 0 0 0
0 0 0 0 0 0 0 0 0 0 0 0 0 0 0 0 0 0 0 0 0 0 0 0 0 0 0 0 0 0 0 0 0 0 0 0 0 0
0 0 0 0 0 0 0 0 0 0 0 0 0 0 0 0 0 0 0 0 0 0 0 0 0 0 0 0 0 0 0 0 0 0 0 0 0 0
0 0 0 0 0 0 0 0 0 0 0 0 0 0 0 0 0 0 0 0 0 0 0 0 0 0 0 0 0 0 0 0 0 0 0 0 0 0
0 0 0 0 0 0 0 0 0 0 0 0 0 0 0 0 0 0 0 0 0 0 0 0 0 0 0 0 0 0 0 0 0 0 0 0 0 0
0 0 0 0 0 0 0 0 0 0 0 0 0 0 0 0 0 0 0 0 0 0 0 0 0 0 0 0 0 0 0 0 0 0 0 0 0 0
0 0 0 0 0 0 0 0 0 0 0 0 0 0 0 0 0 0 0 0 0 0 0 0 0 0 0 0 0 0 0 0 0 0 0 0 0 0
0 0 0 0 0 0 0 0 0 0 0 0 0 0 0 0 0 0 0 0 0 0 0 0 0 0 0 0 0 0 0 0 0 0 0 0 0 0
0 0 0 0 0 0 0 0 0 0 0 0 0 0 0 0 0 0 0 0 0 0 0 0 0 0 0 0 0 0 0 0 0 0 0 0 0 0
0 0 0 0 0 0 0 0 0 0 0 0 0 0 0 0 0 0 0 0 0 0 0 0 0 0 0 0 0 0 0 0 0 0 0 0 0 0
0 0 0 0 0 0 0 0 0 0 0 0 0 0 0 0 0 0 0 0 0 0 0 0 0 0 0 0 0 0 0 0 0 0 0 0 0 0
0 0 0 0 0 0 0 0 0 0 0 0 0 0 0 0 0 0 0 0 0 0 0 0 0 0 0 0 0 0 0 0 0 0 0 0 0 0
0 0 0 0 0 0 0 0 0 0 0 0 0 0 0 0 0 0 0 0 0 0 0 0 0 0 0 0 0 0 0 0 0 0 0 0 0 0
0 0 0 0 0 0 0 0 0 0 0 0 0 0 0 0 0 0 0 0 0 0 0 0 0 0 0 0 0 0 0 0 0 0 0 0 0 0
0 0 0 0 0 0 0 0 0 0 0 0 0 0 0 0 0 0 0 0 0 0 0 0 0 0 0 0 0 0 0 0 0 0 0 0 0 0
0 0 0 0 0 0 0 0 0 0 0 0 0 0 0 0 0 0 0 0 0 0 0 0 0 0 0 0 0 0 0 0 0 0 0 0 0 0
0 0 0 0 0 0 0 0 0 0 0 0 0 0 0 0 0 0 0 0 0 0 0 0 0 0 0 0 0 0 0 0 0 0 0 0 0 0
0 0 0 0 0 0 0 0 0 0 0 0 0 0 0 0 0 0 0 0 0 0 0 0 0 0 0 0 0 0 0 0 0 0 0 0 0 0
0 0 0 0 0 0 0 0 0 0 0 0 0 0 0 0 0 0 0 0 0 0 0 0 0 0 0 0 0 0 0 0 0 0 0 0 0 0
0 0 0 0 0 0 0 0 0 0 0 0 0 0 0 0 0 0 0 0 0 0 0 0 0 0 0 0 0 0 0 0 0 0 0 0 0 0
Wind_Speed
5 5 4 3 4 4 4 5 5 6 6 5 4 4 4 5 7 7 7 9 11 11 11 11 11 11 11 11 11 12 12 12 13 13 13 14 15 15
4 5 5 4 4 4 5 5 6 6 6 5 6 6 6 6 8 8 8 11 12 11 10 10 10 10 10 11 11 11 11 11 12 12 13 13 14 14
5 5 6 5 5 4 5 5 5 5 7 7 6 6 8 8 7 7 7 8 7 9 9 10 10 10 10 11 11 11 11 11 12 13 13 13 14 15
6 6 6 5 6 5 5 5 5 6 6 8 7 6 8 8 8 8 7 7 7 9 10 10 10 10 10 10 11 11 11 11 12 13 13 13 14 14
7 7 7 6 7 5 6 5 5 5 5 6 7 6 6 6 7 7 8 7 7 8 9 9 9 10 10 11 11 11 11 11 11 12 12 12 13 14
7 7 7 7 7 7 6 6 5 5 6 6 6 6 6 6 6 6 6 6 6 6 7 8 9 10 11 11 11 11 11 11 11 12 12 12 12 12
7 7 7 8 9 8 6 6 6 5 5 6 6 6 6 5 5 5 6 7 7 5 6 6 7 6 6 8 9 10 11 11 11 12 12 12 12 13
7 7 7 7 8 10 10 10 9 8 7 7 7 7 8 7 6 6 6 7 7 4 6 7 6 7 6 6 8 10 11 11 12 12 12 12 13 13
7 7 6 6 8 7 8 10 10 11 12 9 9 9 9 8 8 8 8 8 8 7 7 8 7 7 6 6 10 11 11 12 12 12 13 14 14 14
7 7 7 8 7 8 8 8 8 8 9 8 8 9 8 8 8 8 9 9 9 7 7 8 7 7 7 6 9 10 11 12 12 13 13 14 14 14
7 8 8 8 10 11 9 8 8 7 8 10 11 11 12 12 10 7 7 7 7 6 5 6 6 7 7 6 6 8 10 11 12 13 13 14 14 13
6 7 9 10 10 11 8 7 8 7 7 7 8 9 9 9 10 8 7 7 6 6 4 5 6 5 6 5 4 5 7 9 11 12 12 13 13 9
5 5 6 9 11 11 10 7 8 8 7 7 6 6 6 5 5 6 6 7 7 6 4 5 6 6 6 6 6 6 6 6 7 8 10 12 12 11
5 5 5 9 11 11 8 8 10 9 5 5 5 5 5 5 5 5 6 7 7 8 7 7 6 6 6 7 7 6 6 6 6 7 6 9 10 11
5 7 9 10 9 6 6 8 7 5 5 5 5 5 5 5 5 5 6 6 7 7 6 7 7 6 7 7 8 7 7 6 6 6 6 6 6 6
5 6 8 7 6 6 6 5 4 4 5 5 5 5 5 5 5 4 5 5 5 5 5 6 7 7 7 8 7 7 7 6 6 6 6 6 6 6
4 3 3 3 3 3 3 4 4 4 4 4 4 4 4 4 4 4 5 5 5 6 5 4 4 5 7 7 7 7 7 7 6 6 7 7 7 7
4 3 3 4 4 4 4 4 4 4 4 4 4 5 5 5 5 4 5 5 6 6 5 5 4 4 4 5 7 7 6 6 6 7 7 7 8 7
3 3 4 4 4 4 4 4 4 4 4 4 5 5 4 4 5 5 5 5 6 6 6 5 5 5 6 7 5 6 7 7 7 7 7 7 9 8
3 4 4 4 4 4 4 4 5 4 4 4 5 5 4 5 5 5 5 6 6 6 6 5 5 5 6 7 7 7 9 8 7 7 8 8 8 11
4 4 4 4 4 4 4 4 5 5 5 5 5 5 5 5 5 5 5 8 7 7 7 6 6 7 6 6 7 7 6 8 10 8 8 8 9 8
4 4 4 4 4 4 5 4 5 5 5 5 5 5 5 5 6 7 6 6 6 7 7 6 6 6 6 7 8 8 8 7 8 12 13 12 8 8
4 4 4 5 5 4 5 5 6 5 5 5 5 5 5 5 6 6 6 6 6 7 7 7 6 5 6 7 8 8 9 9 7 7 7 9 13 16
Wind_Direction
258 259 258 261 263 265 263 263 269 280 285 288 294 293 303 303 303 295 295 303 304 300 298 298 298 300 301 298 298 297 295 287 281 280 278 278 279 278
258 260 262 263 263 262 257 258 258 262 274 286 291 295 298 297 300 296 293 301 298 292 293 295 295 297 297 297 297 298 298 295 288 283 279 277 276 278
253 255 259 262 264 263 258 255 255 255 265 279 284 288 290 292 295 295 296 294 293 294 292 292 294 295 294 294 294 295 295 294 290 284 281 278 275 275
252 253 256 258 260 260 258 258 259 259 260 273 282 285 289 291 292 292 293 292 292 295 293 289 289 291 291 288 289 290 291 291 289 285 281 278 277 277
251 252 253 254 257 259 260 261 262 264 263 267 277 282 285 286 291 290 290 289 289 292 290 287 288 289 289 286 285 286 286 286 285 285 281 280 279 277
256 254 252 253 256 260 262 262 264 267 266 266 271 276 280 288 286 291 294 294 293 294 290 290 292 292 287 284 282 283 283 283 284 285 284 281 280 281
259 260 259 259 263 264 264 264 265 265 268 267 270 274 277 284 284 289 289 294 291 290 293 292 291 287 285 282 280 281 281 281 279 279 280 280 280 279
262 263 264 263 265 267 272 273 270 265 265 268 270 272 277 281 284 281 283 287 286 288 294 292 289 285 285 281 285 286 282 279 278 279 281 281 281 282
259 261 261 263 269 266 271 272 270 269 267 268 270 274 278 279 279 280 279 281 281 289 288 284 284 282 284 284 287 282 280 277 278 279 281 281 279 278
258 259 262 264 263 268 269 268 267 266 268 268 269 273 275 277 276 278 279 278 278 273 269 276 280 282 287 286 287 280 280 281 282 281 280 279 279 279
259 258 259 262 265 268 269 269 270 272 273 273 274 277 276 277 277 275 272 270 273 274 268 266 277 286 285 282 283 283 283 283 282 282 282 282 282 283
259 258 259 261 266 268 265 268 270 276 279 279 276 276 275 273 273 267 268 268 273 273 262 268 277 286 283 280 288 292 288 285 285 285 285 284 283 280
264 263 262 265 269 272 273 267 270 281 281 277 277 277 277 272 270 270 270 264 265 268 272 273 274 276 273 283 289 287 285 289 289 285 283 285 283 277
268 270 270 275 278 279 276 275 281 283 280 278 275 274 277 278 281 282 280 273 268 271 271 268 268 268 274 279 283 287 288 289 286 286 286 286 281 278
269 271 276 281 286 281 277 283 285 276 272 273 277 280 282 283 284 284 283 279 275 273 270 266 263 266 266 268 277 283 288 289 283 282 285 287 285 284
272 273 276 280 278 279 284 283 275 270 270 271 277 283 285 282 278 282 283 282 279 281 279 270 263 263 264 268 270 275 277 278 282 285 285 284 282 277
284 275 269 269 268 272 276 279 278 274 270 270 273 278 280 281 282 284 281 280 275 279 285 285 278 274 269 268 269 268 273 278 281 284 284 281 280 277
282 263 264 266 268 273 276 277 275 273 273 273 272 273 276 280 284 285 281 274 274 277 282 287 290 286 274 260 253 267 271 278 283 283 280 278 279 278
274 268 268 269 271 272 272 272 274 276 275 270 271 273 274 274 277 278 278 277 275 276 279 282 279 274 274 278 273 258 274 281 282 279 275 274 279 282
272 272 273 274 273 274 274 272 273 274 270 267 269 270 272 273 273 272 273 275 278 279 278 275 270 267 268 279 284 281 275 273 275 277 279 279 278 282
274 274 273 274 274 273 274 272 272 272 271 269 268 269 269 268 268 269 269 273 275 274 274 274 277 282 280 274 269 271 276 274 274 275 281 282 284 284
271 272 272 270 270 270 271 270 270 270 272 270 268 268 268 266 265 266 267 268 270 273 277 279 280 275 264 260 267 277 284 286 282 278 273 270 276 279
270 272 272 270 268 268 267 265 265 268 270 271 271 270 269 266 265 265 265 266 270 273 276 278 277 272 265 263 269 275 281 286 287 286 282 283 281 280